Atlantic City, NJ

8:19 AM EDT on May 26, 2018 (GMT -0400)
Atlantic City International

Weather History for KACY - December, 2014

Change the Weather History Date:

Tuesday, December 16, 2014

  Actual Average Record
Temperature  
Mean Temperature 40 °F 37 °F  
Max Temperature 52 °F 46 °F 66 °F (1971)
Min Temperature 27 °F 28 °F 8 °F (1968)
Degree Days  
Heating Degree Days 25 28  
Month to date heating degree days 386 413  
Since 1 July heating degree days 1293 1320  
Cooling Degree Days 0 0  
Month to date cooling degree days 0 0  
Year to date cooling degree days 857 1055  
Moisture  
Dew Point 38 °F    
Average Humidity 87    
Maximum Humidity 100    
Minimum Humidity 74    
Precipitation  
Precipitation 0.26 in 0.12 in 1.90 in (1974)
Month to date precipitation 4.28 1.97  
Year to date precipitation 53.11 40.03  
Snow  
Snow 0.00 in 0.20 in 4.00 in (1896)
Month to date snowfall 0.4 1.7  
Since 1 July snowfall 0.4 1.9  
Snow Depth 0.00 in    
Sea Level Pressure  
Sea Level Pressure 29.99 in    
Wind  
Wind Speed 4 mph (South)    
Max Wind Speed 15 mph    
Max Gust Speed 20 mph    
Visibility 4 miles    
Events Fog , Rain    
T = Trace of Precipitation, MM = Missing Value Source: NWS Daily Summary

Daily Weather History Graph

Daily Weather History Graph

Search for Another Location

Airport or City:

Astronomy

Dec. 16, 2014 Rise Set
Actual Time 7:12 AM EST 4:35 PM EST
Civil Twilight 6:41 AM EST 5:06 PM EST
Nautical Twilight 6:08 AM EST 5:39 PM EST
Astronomical Twilight 5:35 AM EST 6:12 PM EST
Moon 1:26 AM EST (12/16) 1:03 PM EST (12/16)
Length of Visible Light 10h 24m
Length of Day
9h 23m
Waning Crescent, 30% of the Moon is Illuminated
Dec 16
Waning Crescent
Dec 21
New
Dec 28
First Quarter
Jan 4
Full
Jan 13
Last Quarter

Hourly Weather History & Observations

Time (EST) Temp. Windchill Dew Point Humidity Pressure Visibility Wind Dir Wind Speed Gust Speed Precip Events Conditions
12:54 AM 30.0 °F - 27.0 °F 88% 30.11 in 9.0 mi Calm Calm - N/A   Clear
1:54 AM 28.9 °F - 26.1 °F 89% 30.12 in 7.0 mi Calm Calm - N/A   Clear
2:54 AM 28.9 °F - 26.1 °F 89% 30.11 in 2.5 mi Calm Calm - N/A   Clear
3:04 AM 28.9 °F - 26.1 °F 89% 30.11 in 4.0 mi Calm Calm - N/A   Clear
3:54 AM 28.0 °F - 24.1 °F 85% 30.09 in 8.0 mi Calm Calm - N/A   Clear
4:20 AM 28.0 °F - 26.1 °F 92% 30.09 in 1.5 mi Calm Calm - N/A   Clear
4:22 AM 28.0 °F - 26.1 °F 92% 30.08 in 0.8 mi Calm Calm - N/A   Clear
4:32 AM 27.0 °F - 25.0 °F 92% 30.08 in 1.0 mi Calm Calm - N/A   Mist
4:38 AM 27.0 °F - 25.0 °F 92% 30.08 in 3.0 mi Calm Calm - N/A   Clear
4:54 AM 27.0 °F - 25.0 °F 92% 30.08 in 7.0 mi Calm Calm - N/A   Clear
5:34 AM 27.0 °F - 25.0 °F 92% 30.08 in 6.0 mi Calm Calm - N/A   Partly Cloudy
5:54 AM 30.0 °F - 27.0 °F 88% 30.09 in 7.0 mi Calm Calm - N/A   Clear
6:24 AM 27.0 °F - 24.1 °F 89% 30.09 in 5.0 mi Calm Calm - N/A   Scattered Clouds
6:33 AM 28.0 °F - 25.0 °F 88% 30.10 in 5.0 mi Calm Calm - N/A   Mostly Cloudy
6:36 AM 28.0 °F - 25.0 °F 88% 30.10 in 1.2 mi Calm Calm - N/A   Mostly Cloudy
6:42 AM 27.0 °F - 25.0 °F 92% 30.09 in 0.2 mi Calm Calm - N/A Fog Light Freezing Fog
6:54 AM 27.0 °F - 26.1 °F 96% 30.09 in 0.2 mi Calm Calm - N/A Fog Light Freezing Fog
7:46 AM 28.0 °F - 28.0 °F 100% 30.09 in 1.2 mi Calm Calm - N/A   Scattered Clouds
7:49 AM 28.4 °F - 28.4 °F 100% 30.09 in 2.0 mi Calm Calm - N/A   Scattered Clouds
7:54 AM 28.9 °F - 28.0 °F 96% 30.10 in 2.5 mi Calm Calm - N/A   Partly Cloudy
8:04 AM 28.9 °F - 27.0 °F 92% 30.08 in 3.0 mi Calm Calm - N/A   Partly Cloudy
8:54 AM 34.0 °F - 32.0 °F 92% 30.09 in 3.0 mi Calm Calm - N/A   Clear
9:26 AM 39.9 °F - 39.0 °F 97% 30.09 in 2.5 mi Calm Calm - N/A   Clear
9:40 AM 44.1 °F 41.5 °F 42.1 °F 93% 30.08 in 4.0 mi SE 4.6 mph - N/A   Clear
9:54 AM 45.0 °F 41.8 °F 43.0 °F 93% 30.09 in 5.0 mi SE 5.8 mph - N/A   Clear
10:54 AM 48.0 °F - 43.0 °F 83% 30.06 in 7.0 mi SSE 11.5 mph - N/A   Scattered Clouds
11:54 AM 48.9 °F - 43.0 °F 80% 30.03 in 7.0 mi SSE 9.2 mph - N/A   Partly Cloudy
12:54 PM 50.0 °F - 43.0 °F 77% 30.01 in 9.0 mi SE 10.4 mph - N/A   Clear
1:54 PM 51.1 °F - 44.1 °F 77% 29.99 in 9.0 mi SE 9.2 mph - N/A   Clear
2:54 PM 50.0 °F - 44.1 °F 80% 29.95 in 8.0 mi SE 8.1 mph - N/A   Overcast
3:54 PM 48.0 °F - 45.0 °F 89% 29.94 in 4.0 mi North - - 0.01 in Rain Rain
4:54 PM 48.9 °F - 46.9 °F 93% 29.90 in 3.0 mi SE 13.8 mph - 0.08 in Rain Rain
5:54 PM 48.9 °F - 48.0 °F 97% 29.89 in 3.0 mi SE 8.1 mph - 0.09 in Rain Rain
6:07 PM 48.9 °F - 48.0 °F 97% 29.89 in 3.0 mi SSE 6.9 mph - 0.00 in   Overcast
6:12 PM 48.9 °F - 48.0 °F 97% 29.89 in 6.0 mi SE 6.9 mph - 0.00 in   Overcast
6:34 PM 50.0 °F - 48.0 °F 93% 29.89 in 6.0 mi South 4.6 mph - 0.00 in   Overcast
6:54 PM 48.9 °F - 48.0 °F 97% 29.89 in 6.0 mi Calm Calm - 0.00 in   Overcast
7:18 PM 48.9 °F - 48.0 °F 97% 29.88 in 4.0 mi WNW 3.5 mph - N/A   Overcast
7:35 PM 48.9 °F - 48.0 °F 97% 29.89 in 2.5 mi West 3.5 mph - 0.01 in Rain Rain
7:38 PM 48.9 °F - 48.0 °F 97% 29.89 in 2.5 mi West 3.5 mph - 0.02 in Rain Rain
7:54 PM 48.9 °F - 48.0 °F 97% 29.90 in 1.8 mi Calm Calm - 0.05 in Rain Rain
8:04 PM 48.9 °F - 48.0 °F 97% 29.90 in 2.0 mi Calm Calm - 0.01 in Rain Light Rain
8:32 PM 48.9 °F - 48.0 °F 97% 29.89 in 1.8 mi SW 3.5 mph - 0.02 in Rain Light Rain
8:36 PM 48.9 °F - 48.0 °F 97% 29.89 in 2.0 mi Calm Calm - 0.02 in Rain Light Rain
8:49 PM 48.2 °F - 48.2 °F 100% 29.88 in 2.5 mi Calm Calm - 0.02 in   Overcast
8:54 PM 48.9 °F - 48.0 °F 97% 29.88 in 3.0 mi Calm Calm - 0.02 in   Overcast
9:06 PM 48.9 °F - 48.0 °F 97% 29.88 in 2.0 mi Calm Calm - 0.01 in   Overcast
9:18 PM 48.9 °F - 48.0 °F 97% 29.88 in 2.5 mi South 3.5 mph - 0.01 in   Overcast
9:45 PM 48.9 °F - 48.0 °F 97% 29.87 in 3.0 mi SSW 6.9 mph - 0.01 in   Overcast
9:54 PM 48.9 °F - 48.0 °F 97% 29.87 in 4.0 mi SW 8.1 mph - 0.01 in   Overcast
10:51 PM 48.2 °F - 48.2 °F 100% 29.86 in 3.0 mi SW 6.9 mph - N/A   Overcast
10:54 PM 48.9 °F - 48.0 °F 97% 29.86 in 3.0 mi SW 8.1 mph - N/A   Overcast
11:20 PM 48.9 °F - 48.0 °F 97% 29.85 in 2.0 mi WSW 5.8 mph - N/A   Overcast
11:42 PM 48.9 °F - 48.0 °F 97% 29.84 in 4.0 mi West 9.2 mph - N/A   Overcast
11:50 PM 48.2 °F - 48.2 °F 100% 29.84 in 5.0 mi WSW 8.1 mph - N/A   Overcast
11:54 PM 48.9 °F - 48.0 °F 97% 29.83 in 5.0 mi WSW 5.8 mph - N/A   Overcast